weather.gov     
National Weather Service

Terminal Aerodrome Forecast
NWS Homepage
This page is being discontinued on March 12, 2014.
The same data is available at this site. Please update your bookmarks.
Thank you, and we apologize for the inconvenience.
Please send an email to SR-SRH.Webmaster@noaa.gov with any concerns.


Current Version
Previous Version:    01  02  03  04  05  06  07  08  09  10  11  12  13  14  15  16  17  18  19  20  21  22  23  24  25  26  27  
[Printable]
098
FTUS46 KOTX 021139
TAFCOE
TAF
KCOE 021139Z 0212/0312 17005KT P6SM SCT200
     FM021500 19008KT P6SM BKN200
     FM021900 23012G20KT P6SM FEW060 SCT200
     FM030400 22015G23KT P6SM VCSH FEW050 BKN080
     FM030600 21011G18KT P6SM SCT090
     FM031100 21011G18KT P6SM -SHRA BKN070 OVC090
      AMD LTD TO CLD AND VIS=




098
FTUS46 KOTX 021139
TAFCOE
TAF
KCOE 021139Z 0212/0312 17005KT P6SM SCT200
     FM021500 19008KT P6SM BKN200
     FM021900 23012G20KT P6SM FEW060 SCT200
     FM030400 22015G23KT P6SM VCSH FEW050 BKN080
     FM030600 21011G18KT P6SM SCT090
     FM031100 21011G18KT P6SM -SHRA BKN070 OVC090
      AMD LTD TO CLD AND VIS=


U.S. Dept. of Commerce
NOAA National Weather Service
1325 East West Highway
Silver Spring, MD 20910
E-mail: w-nws.webmaster@noaa.gov
Page last modified: May 16, 2007
NATIONAL WEATHER SERVICE: for Safety, for Work, for Fun - FOR LIFE